{"data":{"norad_id":62457,"intl_designator":"2024-252D","name":"NUVIEW BRAVO","alt_names":[],"object_type":"PAYLOAD","status":"ACTIVE","operator":null,"country":"UK","launch_date":"2024-12-29","launch_site_code":"AFETR","launch_vehicle":null,"mission":null,"orbit_class":"UNKNOWN","rcs_meters":null,"size_class":null,"mass_kg":null,"dimensions":null,"purposes":["comms"],"wikipedia_slug":null,"has_3d_model":false,"image_url":null,"decayed_at":null,"tle_current":{"epoch":"2026-09-19T21:42:31.562208Z","epoch_age_seconds":69825,"freshness":"FRESH","line1":"1 62457U 24252D   26262.90453197 -.00000219  00000+0  00000+0 0  9996","line2":"2 62457   0.0634 160.4000 0001710  22.7787  58.1634  1.00272817  4742","mean_motion":1.00272817,"eccentricity":0.000171,"inclination_deg":0.0634,"raan_deg":160.4,"arg_perigee_deg":22.7787,"mean_anomaly_deg":58.1634,"bstar":0,"rev_number":474,"period_min":1436.0821238322,"perigee_km":35779.095536915,"apogee_km":35793.515776304,"semimajor_km":42164.442656609,"source":"CELESTRAK","updated_at":"2026-09-20T09:00:35.341134Z"}}}